Other Public Products
Issued by NWS Grand Forks, ND

Home | Current Version | Previous Version | Graphics & Text | Print | Product List | Glossary On
Versions: 1 2 3 4 5 6 7 8 9 10 11 12 13 14 15 16 17 18 19 20 21 22 23 24 25 26 27 28 29 30 31 32 33 34 35 36 37 38 39 40 41 42 43 44 45 46 47 48 49 50
000
FPUS83 KFGF 211110
OPUFGF
PRAIRIE TO PINES WEATHER ROUNDUP
NATIONAL WEATHER SERVICE EASTERN NORTH DAKOTA/GRAND FORKS ND
600 AM CDT SAT APR 21 2018

 **SATELLITE DATA USED TO AUGMENT SKY COVER AT AUTOMATED STATIONS**
 *****  WEATHER ACROSS EASTERN NORTH DAKOTA  *****

CITY           SKY/WX    TMP DP  RH WIND       PRES   REMARKS
GRAND FORKS    MOCLDY    33  33 100 S7        30.34R
GRND FORKS AFB CLOUDY    35  35  99 S8        30.33R
GRND FORKS NWS   N/A     34  33  94 S5        30.31S
BUXTON           N/A     35  35  99 S8          N/A
DEVILS LAKE    FAIR      32  30  92 CALM      30.30S
FARGO          FAIR      33  31  92 S7        30.36S
WAHPETON ARPT  FAIR      32  30  93 SE7       30.38S
$$

 *****  WEATHER ACROSS CENTRAL AND WESTERN NORTH DAKOTA  *****

CITY           SKY/WX    TMP DP  RH WIND       PRES   REMARKS
JAMESTOWN      MOCLDY    33  32  96 CALM      30.31S
BISMARCK       FAIR      36  34  92 SE3       30.27S
MINOT          MOCLDY    42  35  76 S7        30.20S
MINOT AFB      CLOUDY    41  36  81 S9        30.19S
GARRISON         N/A     35  33  92 SW6       30.21F
WILLISTON      FAIR      40  36  86 S6        30.15R
DICKINSON      CLOUDY    39  36  89 S15       30.17S
HETTINGER      FAIR      37  34  89 S13       30.22F
$$

 *****  OTHER OBSERVATIONS NORTHEAST NORTH DAKOTA  *****

CITY           SKY/WX    TMP DP  RH WIND       PRES   REMARKS
WALHALLA       FAIR      41  41 100 SW8       30.29S
LANGDON        CLOUDY    37  37 100 S13       30.29S
CAVALIER         N/A     36  34  93 S8        30.30S
GRAFTON        FAIR      32  32 100 S10       30.35R WCI  24
CANDO          FAIR      30  30 100 SE7       30.30R WCI  23
FORT TOTTEN      N/A     35  33  93 S7        29.95S
ROLLA          CLOUDY    34  34 100 S7        30.25S
RUGBY            N/A     32  32 100 SE8       30.25S WCI  25
 ***** THE ABOVE OBSERVATIONS ARE NON NWS ARE NOT QUALITY
        CONTROLLED AND MAY MIS-REPORT RAIN FOR SNOW...
$$

 *****  OTHER OBSERVATIONS SOUTHEAST NORTH DAKOTA *****

CITY           SKY/WX    TMP DP  RH WIND       PRES   REMARKS
COOPERSTOWN    FAIR      34  34 100 S8        30.32F
VALLEY CITY    CLOUDY    32  32 100 S5        30.34F FOG
OAKES            N/A     36  36 100 S8        30.33F
GWINNER          N/A     36  36 100 CALM      30.35S
SHEYENNE NWR     N/A     28  28 100 SE3       29.95S
BUFFALO          N/A     34  33  94 E8          N/A
WYNDMERE       NOT AVBL
 ***** THE ABOVE OBSERVATIONS ARE NON NWS ARE NOT QUALITY
       CONTROLLED AND MAY MIS-REPORT RAIN FOR SNOW...
$$

  *****  WEATHER ACROSS NORTHERN MINNESOTA  *****

CITY           SKY/WX    TMP DP  RH WIND       PRES   REMARKS
FLAG ISLAND    FAIR      28  27  93 SE3       30.35S
WARROAD        FAIR      34  28  80 CALM      30.36S
ROSEAU         FAIR      32  28  86 S3        30.35S
HALLOCK        MOCLDY    34  34 100 S9        30.32S
THF RVR FALLS  FAIR      32  30  92 SE6       30.36S
HALSTAD        NOT AVBL
FOSSTON        FAIR      32  27  80 SE6       30.37S
BAUDETTE       FAIR      30  28  92 CALM      30.36S
WASKISH        FAIR      25  23  93 CALM      30.38S
CROOKSTON      FAIR      34  32  93 S6        30.37S
$$
  *****  WEATHER ACROSS CENTRAL AND WEST MINNESOTA  *****

CITY           SKY/WX    TMP DP  RH WIND       PRES   REMARKS
BEMIDJI        FAIR      26  22  85 CALM      30.38R
PARK RAPIDS    FAIR      28  22  78 CALM      30.38R
WADENA         FAIR      28  28 100 CALM      30.39S FOG
DETROIT LAKES  FAIR      32  30  93 CALM      30.38F
MOORHEAD       FAIR      32  28  86 SE6       30.38S
FERGUS FALLS   FAIR      34  28  80 SE7       30.37F
ELBOW LAKE     FAIR      33  29  88 E6        30.39S
MORRIS MN      FAIR      34  30  86 E6        30.37F
STAPLES        FAIR      27  25  93 CALM      30.40S
WHEATON        FAIR      32  30  93 SE7       30.39F
$$
  *****  WEATHER ELSEWHERE ACROSS MINNESOTA  *****

CITY           SKY/WX    TMP DP  RH WIND       PRES   REMARKS
DULUTH         FAIR      35  19  52 NW6       30.38S
INTRNTL FALLS  FAIR      26  24  92 CALM      30.37R
ELY            FAIR      25  19  80 CALM      30.38S
CLOQUET        FAIR      28  19  69 CALM      30.39S
BRAINERD       FAIR      26  22  84 CALM      30.41R
HIBBING        FAIR      23  20  88 CALM      30.38S
ALEXANDRIA     FAIR      34  27  75 CALM      30.39F
SAINT CLOUD    FAIR      28  26  92 CALM      30.41F
MINNEAPOLIS    MOCLDY    39  28  64 NE5       30.42S
$$

  *****  WEATHER ACROSS SOUTH DAKOTA  *****

CITY           SKY/WX    TMP DP  RH WIND       PRES   REMARKS
SIOUX FALLS    CLOUDY    38  30  73 NE9       30.34F
BROOKINGS      CLOUDY    37  33  85 SE6       30.36F
WATERTOWN      CLOUDY    35  32  88 S6        30.35S
HURON          LGT RAIN  40  34  79 S7        30.34R
SISSETON         N/A     35  33  92 SE3       30.35S
ABERDEEN       CLOUDY    39  36  89 CALM      30.35R
MITCHELL       MOCLDY    37  34  89 E8        30.34F
PIERRE         FAIR      39  39 100 E5        30.29F
MOBRIDGE       CLOUDY    42  38  85 SE10      30.28S
RAPID CITY     CLOUDY    37  36  96 S12       30.20F
$$

  *****  SOME WEATHER IN NEARBY STATES *****

CITY           SKY/WX    TMP DP  RH WIND       PRES   REMARKS
GLASGOW MT     FAIR      40  35  83 E12       30.04F
GREAT FALLS MT FAIR      39  26  59 SW13      30.01F
CHEYENNE WY    CLOUDY    30  30 100 E5        30.14R FOG
SCOTTSBLUFF NE CLOUDY    35  32  88 NE6       30.20S
OMAHA NE       CLOUDY    49  27  42 SE6       30.30R
DES MOINES IA  CLOUDY    46  32  58 E7        30.36R
DAVENPORT IA   FAIR      44  24  45 E9        30.42R
CHICAGO IL     CLOUDY    42  22  44 CALM      30.43S
EAU CLAIRE WI  FAIR      32  25  75 N3        30.42R
LA CROSSE WI   FAIR      36  29  75 CALM      30.42S
$$

  *****  SOME NATIONAL WEATHER *****

CITY           SKY/WX    TMP DP  RH WIND       PRES   REMARKS
LA GUARDIA NY  FAIR      42  26  53 NW12      30.40R
RALEIGH NC     FAIR      39  32  76 NE3       30.42R
ATLANTA GA     FAIR      47  36  65 E7        30.31R
NEW ORLEANS LA FAIR      59  52  77 E5        30.10R
OKLAHOMA CITY  LGT RAIN  50  49  96 N9        30.04F FOG
ALBUQUERQUE NM FAIR      39  30  70 S5        30.10R
SALT LAKE CITY FAIR      46  36  68 SE7       30.15R
LOS ANGELES CA FAIR      55  53  93 W6        30.05F
BOISE ID       FAIR      46  33  60 SE8       30.12R
SEATTLE WA     MOCLDY    46  42  86 S13       30.22R
$$

*** WEATHER ACROSS MANITOBA...SASKATCHEWAN AND ONTARIO ***
                ***ONTARIO***

CITY           SKY/WX    TMP DP  RH WIND       PRES   REMARKS
GERALDTON      CLEAR     19  14  79 SW2       30.37R
THUNDER BAY    PTCLDY    25  21  86 W3        30.40R
SIOUX LOOKOUT  PTCLDY    27  19  74 S5        30.35R WCI  21
TORONTO        MOCLDY    34  21  60 VRB2      30.44R
BIG TROUT LK   CLEAR     28  19  69 S7        30.29F WCI  21
PICKLE LAKE    PTCLDY    34  14  44 SW5       30.31
DRYDEN         CLEAR     34  23  64 S7        30.35R
KENORA         PTCLDY    36  28  75 SW5       30.35R
$$
                *** MANITOBA***

CITY           SKY/WX    TMP DP  RH WIND       PRES   REMARKS
BRANDON        PTCLDY    30  30 100 E6        30.21F WCI  24
DAUPHIN        CLEAR     36  30  80 NE5       30.16S
ISLAND LAKE    PTCLDY    32  21  64 SE6       30.23F
PILOT MOUND      N/A     34  30  86 S9          N/A
THE PAS        CLOUDY    32  27  80 SE7       30.08S
THOMPSON       CLEAR     32  21  64 CALM      30.09F
WINNIPEG       CLEAR     36  32  87 S12       30.28F
LYNN LAKE      CLEAR     34  27  75 S3        30.00S
CHURCHILL      PTCLDY    39  27  60 SW16G23   30.02F
GILLAM         PTCLDY    34  19  55 S7        30.13F
$$
                ***SASKATCHEWAN***

CITY           SKY/WX    TMP DP  RH WIND       PRES   REMARKS
ESTEVAN        PTCLDY    37  36  93 S6        30.13S
KINDERSLEY     MOCLDY    37  32  81 SE9       29.92F
LLOYDMINSTER   MOCLDY    37  34  87 SE6       29.91F
PRINCE ALBERT  MOCLDY    30  28  93 E9        29.98F WCI  22
REGINA         PTCLDY    34  32  93 SE12      30.06F
YORKTON        PTCLDY    34  32  93 S9        30.09F



USA.gov is the U.S. government's official web portal to all federal, state and local government web resources and services.